2023/09/08 00:00:00, 2.9,21.0
2023/09/08 00:10:00, 0.0,21.3
2023/09/08 00:20:00, 0.0,20.9
2023/09/08 00:30:00, 0.0,20.8
2023/09/08 00:40:00, 0.0,20.8
2023/09/08 00:50:00, 0.0,20.9
2023/09/08 01:00:00, 0.0,21.1
2023/09/08 01:10:00, 2.5,20.9
2023/09/08 01:20:00,12.0,21.0
2023/09/08 01:30:00,16.0,21.0
2023/09/08 01:40:00,17.7,21.0
2023/09/08 01:50:00,19.2,21.0
2023/09/08 02:00:00,20.4,20.8
2023/09/08 02:10:00,20.7,20.9
2023/09/08 02:20:00,20.7,20.9
2023/09/08 02:30:00,21.0,20.9
2023/09/08 02:40:00,20.9,20.8
2023/09/08 02:50:00,21.0,20.8
2023/09/08 03:00:00,21.0,21.0
2023/09/08 03:10:00,21.0,21.0
2023/09/08 03:20:00,21.2,20.8
2023/09/08 03:30:00,21.3,21.0
2023/09/08 03:40:00,21.3,21.0
2023/09/08 03:50:00, 5.1,20.8
2023/09/08 04:00:00, 0.0,20.8
2023/09/08 04:10:00, 0.0,20.9
2023/09/08 04:20:00, 0.0,20.9
2023/09/08 04:30:00,22.2,20.8
2023/09/08 04:40:00,22.3,20.8
2023/09/08 04:50:00,22.0,20.8
2023/09/08 05:00:00,21.9,20.8
2023/09/08 05:10:00,21.9,20.7
2023/09/08 05:20:00,21.8,20.9
2023/09/08 05:30:00,21.5,20.9
2023/09/08 05:40:00,21.5,20.9
2023/09/08 05:50:00,21.5,20.9
2023/09/08 06:00:00,21.3,21.1
2023/09/08 06:10:00,21.2,21.0
2023/09/08 06:20:00,19.7,21.0
2023/09/08 06:30:00, 0.0,21.2
2023/09/08 06:40:00, 0.0,21.2
2023/09/08 06:50:00, 0.0,21.2
2023/09/08 07:00:00, 0.0,21.3
2023/09/08 07:10:00, 0.0,21.4
2023/09/08 07:20:00, 0.0,21.4
2023/09/08 07:30:00,11.8,21.4
2023/09/08 07:40:00,21.6,21.4
2023/09/08 07:50:00,---,21.7
2023/09/08 08:00:00, 4.2,21.8
2023/09/08 08:10:00, 7.0,21.8
2023/09/08 08:20:00,21.1,21.9
2023/09/08 08:30:00, 5.0,22.0
2023/09/08 08:40:00, 6.0,22.3
2023/09/08 08:50:00, 7.2,22.0
2023/09/08 09:00:00, 3.9,22.2
2023/09/08 09:10:00,19.3,22.3
2023/09/08 09:20:00,20.6,22.8
2023/09/08 09:30:00,21.0,22.5
2023/09/08 09:40:00,20.9,23.3
2023/09/08 09:50:00,21.0,23.6
2023/09/08 10:00:00,21.7,24.1
2023/09/08 10:10:00,22.0,24.1
2023/09/08 10:20:00,20.5,23.7
2023/09/08 10:30:00, 0.7,23.5
2023/09/08 10:40:00,21.1,23.4
2023/09/08 10:50:00,21.5,23.9
2023/09/08 11:00:00,21.9,23.4
2023/09/08 11:10:00,22.3,23.7
2023/09/08 11:20:00,22.4,23.8
2023/09/08 11:30:00,22.2,23.9
2023/09/08 11:40:00,22.2,23.6
2023/09/08 11:50:00,21.5,23.8
2023/09/08 12:00:00,21.5,23.8
2023/09/08 12:10:00,21.8,24.3
2023/09/08 12:20:00,20.4,25.2
2023/09/08 12:30:00,---,26.0
2023/09/08 12:40:00, 3.4,25.2
2023/09/08 12:50:00, 6.4,23.9
2023/09/08 13:00:00,17.7,24.0
2023/09/08 13:10:00,21.5,23.5
2023/09/08 13:20:00,21.8,23.7
2023/09/08 13:30:00,21.8,23.7
2023/09/08 13:40:00,21.6,23.4
2023/09/08 13:50:00,21.8,23.3
2023/09/08 14:00:00,21.9,23.4
2023/09/08 14:10:00,22.3,23.2
2023/09/08 14:20:00,22.3,23.3
2023/09/08 14:30:00,22.3,23.3
2023/09/08 14:40:00,22.4,23.1
2023/09/08 14:50:00,22.3,23.4
2023/09/08 15:00:00,22.2,23.5
2023/09/08 15:10:00,22.3,23.8
2023/09/08 15:20:00,22.5,23.3
2023/09/08 15:30:00,22.5,23.5
2023/09/08 15:40:00,22.8,23.1
2023/09/08 15:50:00,22.4,24.3
2023/09/08 16:00:00,23.0,24.1
2023/09/08 16:10:00,23.0,24.1
2023/09/08 16:20:00,22.9,24.2
2023/09/08 16:30:00,22.3,23.8
2023/09/08 16:40:00,22.3,23.6
2023/09/08 16:50:00,22.6,23.4
2023/09/08 17:00:00,22.8,23.2
2023/09/08 17:10:00,22.9,23.1
2023/09/08 17:20:00,22.7,22.6
2023/09/08 17:30:00,22.5,22.4
2023/09/08 17:40:00,22.6,22.4
2023/09/08 17:50:00,22.4,22.1
2023/09/08 18:00:00,20.8,21.9
2023/09/08 18:10:00,20.1,21.7
2023/09/08 18:20:00,20.5,21.6
2023/09/08 18:30:00,20.8,21.5
2023/09/08 18:40:00,20.7,21.4
2023/09/08 18:50:00,20.7,21.4
2023/09/08 19:00:00,21.0,21.2
2023/09/08 19:10:00,21.1,21.2
2023/09/08 19:20:00,20.8,21.1
2023/09/08 19:30:00,19.8,20.9
2023/09/08 19:40:00,13.6,20.9
2023/09/08 19:50:00, 7.3,20.6
2023/09/08 20:00:00, 7.6,20.6
2023/09/08 20:10:00, 7.9,20.6
2023/09/08 20:20:00, 7.7,20.6
2023/09/08 20:30:00, 7.8,20.6
2023/09/08 20:40:00, 8.7,20.6
2023/09/08 20:50:00, 8.8,20.6
2023/09/08 21:00:00, 8.3,20.7
2023/09/08 21:10:00, 9.5,20.6
2023/09/08 21:20:00,12.1,20.5
2023/09/08 21:30:00,17.6,20.6
2023/09/08 21:40:00,19.9,20.7
2023/09/08 21:50:00,20.4,20.7
2023/09/08 22:00:00,20.6,20.8
2023/09/08 22:10:00,20.8,20.7
2023/09/08 22:20:00,20.8,20.5
2023/09/08 22:30:00,20.8,20.5
2023/09/08 22:40:00,20.9,20.5
2023/09/08 22:50:00,20.8,20.4
2023/09/08 23:00:00,21.0,20.5
2023/09/08 23:10:00,20.9,20.6
2023/09/08 23:20:00,20.8,20.5
2023/09/08 23:30:00,20.8,20.6
2023/09/08 23:40:00,20.8,20.4
2023/09/08 23:50:00,20.9,20.4
